Location: Newark
(52.0178°N, 4.7453°W)
Time: 23:13:50
(UTC+00:00)

Envisat - Pass Details

Date: 21 March 2019
Orbit: 764 x 766 km, 98.1° (Epoch: 13 October)

Event Time Altitude Azimuth Distance (km) Brightness Sun altitude
Rises 19:15:43 0° 181° (S) 3,219 6.1 -7.3°
Reaches altitude 10° 19:18:06 10° 187° (S) 2,298 5.5 -7.7°
Maximum altitude 19:22:59 47° 261° (W) 1,007 4.2 -8.4°
Drops below altitude 10° 19:27:54 10° 336° (NNW) 2,315 6.0 -9.1°
Sets 19:30:19 0° 342° (NNW) 3,247 6.7 -9.5°
